Home > Weather > Bad Oldesloe > Past weeks

Flag for Germany Past Weather in Bad Oldesloe, Schleswig-Holstein, Germany — Yesterday and Last 2 Weeks

Now
66 °F

Partly cloudy.


Feels Like: 66 °F
Forecast: 51 / 64 °F
Wind: 24 mph from Southwest

Location: Hamburg-Fuhlsbuettel

Current Time: Jul 2, 2016 at 2:23:47 AM

Latest Report: Jul 2, 2016 at 1:50 AM


Visibility: N/A

Pressure: 29.77 "Hg

Humidity: 78%

Dew Point: 59 °F

Location of Bad OldesloeLocation

Past Weather in Bad Oldesloe — Graph

°F

Bad Oldesloe Temperature Yesterday

Maximum temperature yesterday: 70 °F (at 3:50 PM)
Minimum temperature yesterday: 63 °F (at 4:20 AM)
Average temperature yesterday: 65 °F

High & Low Weather Summary for the Past Weeks

 TemperatureHumidityPressure
High90 °F (Jun 23, 5:50 PM)100% (Jun 17, 1:20 AM)30.21 "Hg (Jun 17, 1:20 AM)
Low46 °F (Jun 20, 1:20 AM)40% (Jun 23, 3:50 PM)29.56 "Hg (Jun 17, 1:50 AM)
Average64 °F79%29.96 "Hg
* Reported Jun 17 1:20 AM — Jul 2 1:20 AM, Bad Oldesloe, Weather by CustomWeather, © 2016

Note: Actual official high and low records may vary slightly from our data, if they occured in-between our weather recording intervals... More about our weather records

Advertising

Bad Oldesloe Weather History for the Previous 24 Hours

Scroll right to see more
 ConditionsComfort  
Time TempWeatherWind HumidityBarometerVisibility
1:20 AM
Sat, Jul 2
68 °FClear.9 mph73%29.77 "Hg10 mi
12:50 AM64 °FClear.10 mph88%29.77 "Hg10 mi
12:20 AM64 °FClear.9 mph94%29.80 "Hg10 mi
11:50 PM
Fri, Jul 1
66 °FClear.9 mph83%29.80 "Hg10 mi
11:20 PM64 °FPassing clouds.8 mph88%29.83 "HgN/A
10:50 PM66 °FBroken clouds.9 mph88%29.83 "HgN/A
10:20 PM64 °FSprinkles. Broken clouds.9 mph94%29.83 "HgN/A
9:50 PM66 °FBroken clouds.9 mph83%29.83 "HgN/A
9:20 PM66 °FSunny.8 mph83%29.86 "Hg10 mi
8:50 PM66 °FPartly sunny.8 mph83%29.86 "HgN/A
8:20 PM66 °FPartly sunny.10 mph83%29.86 "HgN/A
7:50 PM66 °FBroken clouds.8 mph83%29.86 "HgN/A
7:20 PM64 °FBroken clouds.8 mph88%29.86 "HgN/A
6:50 PM64 °FBroken clouds.9 mph88%29.86 "HgN/A
6:20 PM64 °FScattered showers. Partly sunny.8 mph88%29.86 "HgN/A
5:50 PM64 °FSprinkles. Partly sunny.12 mph88%29.86 "HgN/A
5:20 PM66 °FSprinkles. Partly sunny.14 mph88%29.86 "HgN/A
4:50 PM66 °FSprinkles. Broken clouds.18 mph83%29.86 "HgN/A
4:20 PM70 °FPartly sunny.14 mph73%29.86 "HgN/A
3:50 PM70 °FPartly sunny.12 mph73%29.86 "HgN/A
3:20 PM68 °FLight rain. Partly sunny.14 mph78%29.86 "HgN/A
2:50 PM68 °FLight rain. Partly sunny.16 mph78%29.86 "HgN/A
2:20 PM68 °FPartly sunny.16 mph78%29.86 "HgN/A
1:50 PM66 °FPartly sunny.15 mph83%29.86 "HgN/A
1:20 PM64 °FLight rain. Broken clouds.14 mph88%29.89 "Hg5 mi
12:50 PM64 °FLight rain. Broken clouds.16 mph88%29.89 "Hg5 mi
12:20 PM68 °FPartly sunny.16 mph73%29.86 "HgN/A
11:50 AM68 °FPartly sunny.20 mph73%29.86 "HgN/A
11:20 AM68 °FBroken clouds.16 mph73%29.86 "HgN/A
10:50 AM68 °FBroken clouds.17 mph78%29.86 "HgN/A
10:20 AM68 °FPartly sunny.17 mph78%29.86 "HgN/A
9:50 AM66 °FPartly sunny.17 mph78%29.86 "HgN/A
9:20 AM66 °FPartly sunny.16 mph78%29.86 "HgN/A
8:50 AM66 °FPartly sunny.14 mph78%29.86 "HgN/A
8:20 AM64 °FPartly sunny.15 mph83%29.86 "HgN/A
7:50 AM64 °FBroken clouds.13 mph83%29.83 "HgN/A
7:20 AM63 °FPartly sunny.15 mph88%29.86 "HgN/A
6:50 AM63 °FPartly sunny.14 mph88%29.86 "HgN/A
6:20 AM63 °FBroken clouds.14 mph88%29.83 "HgN/A
5:50 AM63 °FPassing clouds.12 mph83%29.86 "HgN/A
5:20 AM63 °FPassing clouds.13 mph83%29.86 "HgN/A
4:50 AM63 °FPassing clouds.10 mph88%29.83 "HgN/A
4:20 AM63 °FPassing clouds.10 mph88%29.83 "HgN/A
3:50 AM64 °FPassing clouds.12 mph83%29.83 "HgN/A
3:20 AM64 °FPassing clouds.14 mph83%29.83 "HgN/A
2:50 AM64 °FPassing clouds.13 mph83%29.83 "HgN/A
2:20 AM64 °FPassing clouds.14 mph83%29.83 "HgN/A
Weather by CustomWeather, © 2016

See weather overviewHow to use our weather pages